Location: Leiter
(44.7178°N, 106.2687°W)
Time: 13:58:14
(UTC+00:00)

CUTE 1.7 + AOD 2 - Visible Passes

Search period start: 26 June 2022 00:00
Search period end: 06 July 2022 00:00
Orbit: 591 x 607 km, 97.7° (Epoch: 25 June)

Date Brightness Start Highest point End Pass type
(mag) Time Alt. Az. Time Alt. Az. Time Alt. Az.
28 Jun ? 09:42:02 10° ENE 09:43:12 11° E 09:44:22 10° ESE visible
29 Jun ? 09:51:48 10° NE 09:54:09 14° E 09:56:28 10° SE visible
30 Jun ? 10:02:04 10° NE 10:05:03 19° E 10:08:02 10° SE visible
01 Jul ? 10:12:30 10° NE 10:15:57 24° E 10:19:21 10° SSE visible
02 Jul ? 10:23:03 10° NNE 10:26:49 31° E 10:30:32 10° SSE visible
03 Jul ? 10:33:41 10° NNE 10:37:40 40° E 10:41:36 10° SSE visible
04 Jul ? 10:44:23 10° NNE 10:48:30 53° E 10:52:35 10° S visible
